Helicity
63 64 46 45 43 42 48 43 68 56 16 36 44 44 56 66 89 92 99 159 135 112 117 125 111 102 102 110 142 166 162 166 163 154 152 159 175 175
58 57 53 43 44 52 48 42 43 56 61 40 50 70 79 79 80 61 84 105 109 102 108 92 84 89 97 127 163 187 187 179 171 179 174 169 149 129
66 61 55 39 41 47 52 53 62 68 71 88 100 104 71 77 74 93 76 58 65 91 94 101 81 88 119 140 153 146 151 147 137 136 137 145 150 176
54 59 43 40 49 35 22 24 46 59 67 95 98 100 105 95 86 79 79 31 56 65 89 88 91 89 88 97 92 95 91 101 102 116 120 126 126 119
56 50 37 31 39 47 26 35 51 64 75 92 107 114 112 107 102 94 74 73 93 102 107 98 78 86 80 83 79 79 82 92 102 105 100 96 99 138
64 59 49 44 37 31 44 62 71 69 68 85 82 79 90 96 95 81 79 90 95 110 103 91 84 81 86 92 85 72 56 75 88 92 93 118 144 130
63 63 63 63 67 67 58 52 53 66 77 84 88 87 83 82 83 70 66 53 68 81 76 71 77 83 102 110 100 101 93 95 90 104 125 125 123 132
83 70 68 70 65 72 78 77 72 74 72 80 87 95 79 78 75 75 78 91 79 70 81 66 84 82 87 80 91 79 92 87 104 97 102 98 110 100
107 112 95 83 83 74 87 118 109 106 91 76 89 85 92 76 76 82 83 86 85 79 78 71 72 69 54 60 59 78 95 119 90 68 63 58 71 84
122 110 107 96 87 87 95 100 106 115 108 104 100 94 94 90 89 73 70 71 77 83 79 87 73 73 74 79 100 108 93 92 102 100 97 87 87 94
130 133 130 125 91 91 117 112 116 114 119 126 123 130 120 111 99 101 122 127 115 87 75 77 74 68 57 52 82 117 93 106 105 74 68 74 96 120
133 128 104 135 96 98 133 127 125 108 122 134 128 113 120 109 122 112 86 106 114 115 95 94 95 64 52 52 51 52 62 69 78 85 92 100 106 109
177 166 146 103 97 95 110 133 114 131 110 121 120 115 110 109 105 103 90 99 118 108 89 85 67 53 47 47 61 60 53 57 78 75 90 87 81 92
173 160 157 96 115 102 117 108 108 140 156 142 141 129 124 124 105 99 87 86 84 83 71 80 60 46 44 48 45 62 52 78 78 100 111 81 62 73
188 164 120 109 105 111 100 107 115 168 168 160 143 130 128 123 113 113 115 110 99 75 62 77 71 64 64 67 80 80 39 78 99 112 131 92 111 129
158 142 131 142 146 175 158 134 174 173 165 158 148 138 164 158 131 129 121 113 122 121 104 91 70 82 78 69 68 72 70 62 99 108 81 62 103 121
261 270 247 250 244 224 212 184 186 193 167 174 189 185 169 167 149 121 115 116 125 114 104 99 73 61 65 66 90 98 94 107 106 98 74 49 83 107
250 258 238 263 272 265 236 206 203 178 179 201 205 189 205 198 143 120 117 109 114 108 106 96 80 75 52 48 49 78 117 116 102 89 97 78 64 95
185 209 221 245 231 240 252 233 217 191 226 235 224 210 202 181 123 121 101 107 111 114 106 94 89 76 58 66 76 65 89 125 108 98 86 96 81 107
193 211 247 264 227 234 240 228 228 228 243 246 259 277 243 187 158 146 122 114 112 123 105 95 89 73 67 64 71 138 75 115 107 79 85 85 129 119
227 220 233 257 222 194 197 222 229 261 232 259 287 270 218 148 137 126 114 84 91 115 102 96 83 53 62 69 86 94 122 86 67 78 57 64 68 101
175 189 195 221 279 252 226 216 205 194 231 258 254 206 178 121 152 130 117 113 103 105 97 88 71 70 73 73 74 78 108 110 95 61 80 64 65 92
153 177 189 190 223 263 237 177 145 165 234 222 214 194 156 146 138 116 120 106 109 106 95 82 75 68 68 90 61 85 86 76 76 123 115 62 38 6
Wind_Speed
40 39 38 35 35 33 32 28 26 20 18 30 26 40 40 39 38 35 37 37 33 34 38 41 43 43 43 45 46 49 50 50 51 50 51 53 56 57
42 40 37 36 36 36 33 27 26 22 15 18 29 35 38 38 37 36 35 36 38 39 42 43 43 44 46 49 51 53 54 52 53 54 56 57 57 61
40 41 36 37 38 38 36 33 30 27 21 24 25 29 31 33 36 38 40 42 42 43 45 47 43 46 49 51 52 53 54 52 52 53 55 57 57 61
42 42 35 34 33 35 36 38 37 34 28 26 26 25 28 29 30 32 39 42 43 42 44 42 41 43 46 47 48 49 49 50 51 53 55 57 58 58
36 35 33 30 28 30 30 33 36 38 36 31 31 30 30 31 30 32 33 37 38 37 39 40 41 44 43 45 43 45 45 46 52 54 55 56 58 57
34 33 32 31 28 28 29 30 30 33 36 35 35 33 33 34 34 37 37 39 36 40 43 46 43 42 41 43 45 43 44 54 55 56 53 54 58 60
30 30 31 31 33 32 27 29 29 30 31 32 32 33 34 35 35 37 38 39 36 43 48 46 43 43 45 48 49 53 55 55 54 52 56 59 61 64
26 25 25 28 31 33 34 34 31 28 29 29 30 30 31 32 34 37 38 38 38 41 51 44 44 46 53 56 61 56 50 51 54 57 61 62 67 67
24 20 24 24 24 27 30 31 34 36 32 27 30 30 30 31 34 37 41 42 42 47 48 44 46 55 57 59 53 48 49 56 63 61 64 64 65 69
30 30 30 28 26 25 26 29 31 32 33 32 30 32 31 33 33 36 39 43 44 45 49 46 50 55 60 53 48 48 56 63 64 66 67 69 70 69
38 32 34 32 29 27 27 27 29 29 31 30 29 28 30 33 35 35 40 45 47 47 52 52 52 58 53 46 46 57 65 59 69 75 69 68 69 70
42 42 37 35 32 29 30 29 30 28 27 29 30 31 31 35 37 37 37 44 46 49 48 54 55 58 55 46 50 62 60 63 78 69 67 66 67 69
45 43 41 37 36 34 32 32 33 30 29 30 32 31 32 34 35 38 40 42 46 48 45 50 51 52 52 56 54 54 58 75 70 65 63 65 68 68
48 45 42 40 37 34 34 34 34 31 31 32 33 33 33 33 34 39 42 44 45 46 48 46 48 50 54 58 58 60 70 70 60 63 65 64 65 68
53 48 45 43 39 36 34 35 34 33 33 35 36 35 34 31 35 40 41 45 46 46 45 41 42 45 49 54 61 67 74 63 62 62 66 67 64 69
51 47 43 40 41 39 37 36 33 30 32 34 34 34 29 32 37 40 40 44 47 43 46 46 42 41 50 53 58 65 62 61 66 66 68 66 65 62
48 47 44 42 40 38 36 34 33 32 33 32 32 32 31 33 37 35 36 42 43 46 49 49 45 46 49 53 58 53 57 62 63 66 69 68 65 62
47 50 50 47 45 44 43 42 37 35 33 31 31 31 33 34 35 34 36 39 43 46 48 51 54 59 56 52 40 53 57 59 66 64 62 63 66 72
53 54 54 49 48 46 43 42 41 36 33 32 32 33 32 33 33 33 34 38 42 45 47 48 52 54 59 63 53 43 55 62 64 62 59 58 72 74
56 56 55 52 49 48 45 44 42 36 35 34 33 33 33 34 35 34 32 35 39 42 44 45 49 52 53 56 57 52 49 56 60 59 60 61 50 31
51 55 54 51 48 45 43 42 38 36 34 33 34 33 32 32 32 32 32 33 36 37 41 47 47 51 52 52 53 53 54 50 47 50 59 73 78 73
50 48 47 46 41 39 37 35 33 34 33 33 33 32 30 27 29 30 30 31 34 38 43 46 48 50 49 50 52 53 56 54 52 48 43 32 49 62
40 38 36 34 31 32 30 31 32 32 29 28 28 26 24 26 25 25 25 27 33 37 41 46 47 45 46 45 47 51 54 53 55 67 69 60 57 57
Wind_Direction
8 8 7 11 14 19 22 30 32 41 47 33 44 15 5 1 356 347 346 348 341 337 329 324 322 326 327 326 322 321 318 318 316 316 314 312 306 305
0 1 5 6 7 10 16 28 36 47 69 68 33 13 2 354 346 347 347 343 336 330 327 327 326 324 323 322 318 314 313 315 314 312 312 310 308 304
1 358 1 4 6 7 10 15 21 29 38 40 40 30 20 12 358 346 338 333 331 329 325 324 324 323 321 319 318 316 315 316 316 315 313 312 310 309
359 1 4 7 12 13 12 9 12 17 23 23 23 21 16 14 12 4 345 333 334 334 332 333 330 328 326 326 322 321 322 321 319 316 315 313 313 313
3 10 17 20 23 26 24 16 9 7 8 11 12 14 11 8 7 3 1 353 343 342 341 339 336 333 332 330 331 329 328 328 323 319 318 316 313 316
357 4 11 16 20 22 23 22 21 13 7 7 7 6 4 0 359 351 349 347 349 345 340 335 336 337 339 334 330 334 332 322 321 320 321 320 317 314
351 357 2 8 10 12 18 16 18 16 14 10 5 3 359 357 355 353 348 345 346 340 334 336 337 338 336 333 329 324 323 324 324 324 322 320 317 315
340 345 352 357 2 7 6 8 10 11 8 8 6 4 359 359 358 352 349 346 342 338 331 334 335 332 329 326 322 324 328 328 326 323 321 319 317 316
324 331 334 343 350 354 358 3 4 2 4 4 359 359 360 355 351 347 344 342 338 335 334 332 331 327 328 326 327 330 330 328 324 323 321 320 319 318
312 315 319 325 331 338 344 348 351 355 356 359 359 355 355 356 351 344 342 339 338 336 336 331 331 328 327 331 333 333 328 325 326 324 323 322 322 321
303 305 307 311 316 322 327 332 337 344 350 352 354 356 355 352 348 343 337 336 333 331 332 331 331 328 331 330 330 329 327 329 326 323 325 324 324 324
298 299 300 302 305 310 314 318 321 327 334 339 343 343 346 345 347 344 339 334 333 331 333 330 330 330 327 330 328 327 330 329 325 329 329 329 328 327
294 295 295 296 298 301 306 309 313 321 322 328 331 334 336 337 340 342 338 334 332 330 333 333 331 331 329 325 328 333 334 328 330 332 334 333 332 331
290 292 292 291 293 295 300 305 309 314 317 320 323 325 326 332 334 336 334 333 332 329 328 332 330 330 328 326 327 331 330 332 336 334 337 336 333 332
288 288 288 287 288 291 293 297 301 306 310 312 315 319 323 329 332 333 334 333 333 331 330 333 331 331 329 327 326 328 330 336 336 337 336 335 333 333
287 287 287 286 285 287 290 291 295 298 304 307 313 318 323 326 327 330 331 331 330 331 333 334 333 332 329 327 327 328 333 335 337 338 336 335 334 334
285 286 284 284 281 283 285 286 291 294 298 303 308 311 316 320 325 330 331 331 330 328 327 330 335 332 329 328 329 333 335 336 338 338 337 336 336 335
283 283 281 280 278 280 282 285 286 288 292 296 301 305 310 315 321 326 328 328 328 327 327 328 330 329 333 335 336 337 339 341 340 339 340 339 336 330
283 284 282 280 279 279 280 282 284 285 290 292 295 301 305 313 317 321 324 326 327 328 329 331 331 331 329 330 338 346 344 341 341 340 342 341 330 329
286 286 284 283 282 281 281 282 286 287 287 290 292 296 302 307 312 316 319 322 326 329 330 332 331 331 333 335 337 341 346 343 343 342 342 340 341 337
289 288 288 287 285 284 284 285 285 285 285 286 289 293 297 300 307 311 316 320 326 329 329 329 332 333 334 338 339 343 346 349 348 345 342 327 317 302
298 293 294 293 285 282 284 282 282 281 281 282 286 289 293 294 302 307 312 319 325 326 328 329 332 335 339 341 343 346 347 350 352 353 352 352 342 332
307 303 299 297 291 285 282 281 280 281 280 280 284 287 290 298 303 308 313 320 324 326 329 330 333 339 343 347 349 349 350 353 354 340 317 345 345 340